Muscle Shoals, AL

3:10 AM CDT on August 19, 2017 (GMT -0500)
Northwest Alabama Regional

Weather History for KMSL - February, 2013

Change the Weather History Date:

Thursday, February 14, 2013

  Actual Average Record
Temperature  
Mean Temperature 46 °F 45 °F  
Max Temperature 62 °F 55 °F 76 °F (1959)
Min Temperature 30 °F 35 °F -13 °F (1905)
Degree Days  
Heating Degree Days 19 20  
Month to date heating degree days 259 301  
Since 1 July heating degree days 1932 2281  
Cooling Degree Days 0 0  
Month to date cooling degree days 0 0  
Year to date cooling degree days 7 0  
Moisture  
Dew Point 32 °F    
Average Humidity 62    
Maximum Humidity 92    
Minimum Humidity 32    
Precipitation  
Precipitation 0.00 in 0.17 in 1.73 in (1933)
Month to date precipitation 1.29 2.29  
Year to date precipitation 10.03 6.90  
Snow  
Snow 0.00 in - - ()
Month to date snowfall T  
Since 1 July snowfall T  
Snow Depth 0.00 in    
Sea Level Pressure  
Sea Level Pressure 30.06 in    
Wind  
Wind Speed 5 mph (SW)    
Max Wind Speed 15 mph    
Max Gust Speed 20 mph    
Visibility 5 miles    
Events Fog    
T = Trace of Precipitation, MM = Missing Value Source: NWS Daily Summary

Daily Weather History Graph

Daily Weather History Graph

Search for Another Location

Airport or City:

Trip Planner

Search our weather history database for the weather conditions in past years. The results will help you decide how hot, cold, wet, or windy it might be!

Date:

Astronomy

Feb. 14, 2013 Rise Set
Actual Time 6:36 AM CST 5:32 PM CST
Civil Twilight 6:11 AM CST 5:58 PM CST
Nautical Twilight 5:41 AM CST 6:28 PM CST
Astronomical Twilight 5:12 AM CST 6:57 PM CST
Moon 8:52 AM CST (2/14) 10:20 PM CST (2/14)
Length of Visible Light 11h 47m
Length of Day
10h 55m
Waxing Crescent, 22% of the Moon is Illuminated
Feb 14
Waxing Crescent
Feb 17
First Quarter
Feb 25
Full
Mar 4
Last Quarter
Mar 11
New

Hourly Weather History & Observations

Time (CST) Temp. Windchill Dew Point Humidity Pressure Visibility Wind Dir Wind Speed Gust Speed Precip Events Conditions
12:08 AM 39.2 °F 35.9 °F 33.8 °F 81% 30.06 in 10.0 mi West 4.6 mph - N/A   Scattered Clouds
12:53 AM 39.0 °F 35.7 °F 34.0 °F 82% 30.06 in 10.0 mi WSW 4.6 mph - N/A   Clear
1:53 AM 36.0 °F - 30.9 °F 82% 30.06 in 8.0 mi Calm Calm - N/A   Clear
2:53 AM 36.0 °F - 33.1 °F 89% 30.06 in 4.0 mi Calm Calm - N/A   Clear
3:25 AM 33.8 °F - 32.0 °F 93% 30.04 in 1.8 mi Calm Calm - N/A   Clear
3:42 AM 35.6 °F - 32.0 °F 87% 30.04 in 3.0 mi Calm Calm - N/A   Clear
3:51 AM 35.6 °F - 32.0 °F 87% 30.04 in 1.8 mi Calm Calm - N/A   Clear
3:53 AM 35.1 °F - 32.0 °F 89% 30.05 in 1.2 mi Calm Calm - N/A   Clear
4:02 AM 35.6 °F - 32.0 °F 87% 30.04 in 0.5 mi Calm Calm - N/A Fog Fog
4:09 AM 33.8 °F - 30.2 °F 87% 30.04 in 0.2 mi Calm Calm - N/A Fog Fog
4:23 AM 35.6 °F - 32.0 °F 87% 30.04 in 0.5 mi Calm Calm - N/A Fog Fog
4:33 AM 33.8 °F - 30.2 °F 87% 30.04 in 0.2 mi Calm Calm - N/A Fog Fog
4:50 AM 33.8 °F - 30.2 °F 87% 30.04 in 0.5 mi Calm Calm - N/A Fog Fog
4:53 AM 33.1 °F - 30.9 °F 92% 30.05 in 0.5 mi Calm Calm - N/A Fog Fog
5:10 AM 32.0 °F - 30.2 °F 93% 30.04 in 2.0 mi Calm Calm - N/A   Clear
5:20 AM 32.0 °F - 30.2 °F 93% 30.04 in 1.2 mi Calm Calm - N/A   Clear
5:25 AM 30.2 °F - 28.4 °F 93% 30.05 in 0.8 mi Calm Calm - N/A   Mist
5:41 AM 30.2 °F 26.7 °F 28.4 °F 93% 30.05 in 1.2 mi South 3.5 mph - N/A   Partly Cloudy
6:04 AM 30.2 °F 26.7 °F 28.4 °F 93% 30.06 in 0.2 mi SSE 3.5 mph - N/A Fog Light Freezing Fog
6:21 AM 30.2 °F 26.7 °F 26.6 °F 86% 30.07 in 0.2 mi SE 3.5 mph - N/A Fog Light Freezing Fog
6:28 AM 30.2 °F - 28.4 °F 93% 30.07 in 0.2 mi Calm Calm - N/A Fog Light Freezing Fog
6:53 AM 30.9 °F 27.5 °F 28.0 °F 89% 30.09 in 0.5 mi South 3.5 mph - N/A Fog Light Freezing Fog
6:56 AM 30.2 °F 26.7 °F 28.4 °F 93% 30.08 in 1.2 mi South 3.5 mph - N/A   Clear
6:59 AM 30.2 °F 26.7 °F 28.4 °F 93% 30.08 in 3.0 mi South 3.5 mph - N/A   Clear
7:53 AM 37.0 °F 33.3 °F 34.0 °F 89% 30.11 in 7.0 mi South 4.6 mph - N/A   Clear
8:53 AM 44.1 °F 42.5 °F 37.0 °F 76% 30.09 in 10.0 mi WSW 3.5 mph - N/A   Clear
9:53 AM 50.0 °F - 37.9 °F 63% 30.09 in 10.0 mi WSW 8.1 mph - N/A   Clear
10:53 AM 52.0 °F - 37.0 °F 57% 30.08 in 10.0 mi WSW 8.1 mph - N/A   Clear
11:53 AM 55.9 °F - 36.0 °F 47% 30.06 in 10.0 mi West 8.1 mph - N/A   Clear
12:53 PM 59.0 °F - 33.1 °F 38% 30.04 in 10.0 mi WSW 8.1 mph - N/A   Clear
1:53 PM 60.1 °F - 30.0 °F 32% 30.03 in 10.0 mi WSW 8.1 mph - N/A   Clear
2:53 PM 61.0 °F - 30.9 °F 32% 30.02 in 10.0 mi SSW 6.9 mph - N/A   Clear
3:53 PM 61.0 °F - 30.0 °F 31% 30.03 in 10.0 mi WNW 10.4 mph - N/A   Clear
4:53 PM 59.0 °F - 33.1 °F 38% 30.04 in 10.0 mi West 6.9 mph - N/A   Clear
5:53 PM 54.0 °F - 33.1 °F 45% 30.05 in 10.0 mi WSW 5.8 mph - N/A   Clear
6:53 PM 50.0 °F - 33.1 °F 52% 30.06 in 10.0 mi SSW 5.8 mph - N/A   Clear
7:53 PM 48.9 °F - 34.0 °F 56% 30.06 in 10.0 mi SW 5.8 mph - N/A   Clear
8:53 PM 48.9 °F - 34.0 °F 56% 30.07 in 10.0 mi SW 3.5 mph - N/A   Clear
9:53 PM 46.0 °F 43.9 °F 34.0 °F 63% 30.08 in 10.0 mi SSW 4.6 mph - N/A   Clear
10:53 PM 43.0 °F 41.3 °F 34.0 °F 71% 30.07 in 10.0 mi SSW 3.5 mph - N/A   Clear
11:53 PM 42.1 °F - 33.1 °F 70% 30.07 in 10.0 mi Calm Calm - N/A   Clear